• In Austria
  • List of Countries
  • For 7 days
  • Water Temperature
  • Satellite Maps
  • Weather Map
  • News
  • Weather Widgets
  • user-avatar
    Login

    Hourly Weather Kfar Nahum (Capernaum )

    Today, 19 November, Sunday

    Time Temperature Precipitation Wind Pressure Humidity
    00:00 +24°C° 0 mm 1 mps 756 mmHg 32%
    01:00 +24°C° 0 mm 1 mps 756 mmHg 35%
    02:00 +23°C° 0 mm 2 mps 756 mmHg 36%
    03:00 +23°C° 0.2 mm 2 mps 756 mmHg 41%
    04:00 +21°C° 0.2 mm 2 mps 756 mmHg 46%
    05:00 +21°C° 0.2 mm 2 mps 756 mmHg 51%
    06:00 +21°C° 0 mm 2 mps 757 mmHg 56%
    07:00 +23°C° 0 mm 2 mps 757 mmHg 62%
    08:00 +23°C° 0 mm 2 mps 757 mmHg 67%
    09:00 +24°C° 0 mm 3 mps 757 mmHg 64%
    10:00 +25°C° 0 mm 3 mps 757 mmHg 61%
    11:00 +26°C° 0 mm 3 mps 757 mmHg 58%
    12:00 +26°C° 0 mm 4 mps 757 mmHg 57%
    13:00 +26°C° 0 mm 4 mps 757 mmHg 56%
    14:00 +26°C° 0 mm 4 mps 757 mmHg 55%
    15:00 +25°C° 0 mm 4 mps 757 mmHg 59%
    16:00 +23°C° 0 mm 4 mps 757 mmHg 64%
    17:00 +22°C° 0 mm 3 mps 757 mmHg 68%
    18:00 +21°C° 0 mm 3 mps 758 mmHg 71%
    19:00 +21°C° 0 mm 2 mps 758 mmHg 74%
    20:00 +20°C° 0 mm 2 mps 758 mmHg 77%
    21:00 +20°C° 0 mm 2 mps 758 mmHg 79%
    22:00 +20°C° 0 mm 1 mps 758 mmHg 81%
    23:00 +20°C° 0 mm 1 mps 758 mmHg 83%

    Tomorrow, 20 November, Monday

    Time Temperature Precipitation Wind Pressure Humidity
    00:00 +20°C° 0 mm 1 mps 758 mmHg 84%
    01:00 +19°C° 0 mm 1 mps 758 mmHg 85%
    02:00 +19°C° 0 mm 1 mps 758 mmHg 85%
    03:00 +19°C° 0 mm 1 mps 758 mmHg 85%
    04:00 +19°C° 0 mm 1 mps 758 mmHg 85%
    05:00 +18°C° 0 mm 1 mps 758 mmHg 85%
    06:00 +19°C° 0 mm 1 mps 758 mmHg 81%
    07:00 +20°C° 0 mm 1 mps 758 mmHg 77%
    08:00 +20°C° 0 mm 1 mps 758 mmHg 72%
    09:00 +20°C° 0 mm 2 mps 758 mmHg 66%
    10:00 +21°C° 0 mm 2 mps 758 mmHg 59%
    11:00 +22°C° 0 mm 3 mps 758 mmHg 53%
    12:00 +23°C° 0.1 mm 4 mps 758 mmHg 52%
    13:00 +23°C° 0.1 mm 4 mps 757 mmHg 50%
    14:00 +23°C° 0.1 mm 5 mps 757 mmHg 49%
    15:00 +22°C° 0.3 mm 4 mps 757 mmHg 55%
    16:00 +21°C° 0.3 mm 4 mps 757 mmHg 61%
    17:00 +20°C° 0.3 mm 4 mps 757 mmHg 67%
    18:00 +20°C° 0.4 mm 4 mps 757 mmHg 70%
    19:00 +19°C° 0.4 mm 3 mps 757 mmHg 74%
    20:00 +19°C° 0.4 mm 3 mps 757 mmHg 77%
    21:00 +19°C° 0.7 mm 3 mps 757 mmHg 77%
    22:00 +19°C° 0.7 mm 3 mps 757 mmHg 78%
    23:00 +18°C° 0.7 mm 3 mps 756 mmHg 78%

    Day after tomorrow, 21 November, Tuesday

    Time Temperature Precipitation Wind Pressure Humidity
    00:00 +18°C° 0.3 mm 3 mps 756 mmHg 78%
    01:00 +18°C° 0.3 mm 4 mps 756 mmHg 77%
    02:00 +18°C° 0.3 mm 4 mps 756 mmHg 76%
    03:00 +18°C° 0.6 mm 4 mps 755 mmHg 76%
    04:00 +17°C° 0.6 mm 5 mps 755 mmHg 76%
    05:00 +17°C° 0.6 mm 5 mps 755 mmHg 77%
    06:00 +17°C° 0.9 mm 6 mps 755 mmHg 76%
    07:00 +17°C° 0.9 mm 7 mps 755 mmHg 76%
    08:00 +17°C° 0.9 mm 7 mps 755 mmHg 75%
    09:00 +17°C° 1 mm 8 mps 755 mmHg 76%
    10:00 +17°C° 1 mm 8 mps 755 mmHg 76%
    11:00 +18°C° 1 mm 8 mps 755 mmHg 77%
    12:00 +18°C° 0.6 mm 9 mps 755 mmHg 73%
    13:00 +17°C° 0.6 mm 9 mps 755 mmHg 68%
    14:00 +17°C° 0.6 mm 9 mps 754 mmHg 64%
    15:00 +17°C° 0.3 mm 8 mps 755 mmHg 66%
    16:00 +16°C° 0.3 mm 8 mps 755 mmHg 68%
    17:00 +16°C° 0.3 mm 7 mps 755 mmHg 69%
    18:00 +16°C° 0.2 mm 7 mps 755 mmHg 70%
    19:00 +15°C° 0.2 mm 6 mps 756 mmHg 71%
    20:00 +15°C° 0.2 mm 6 mps 756 mmHg 72%
    21:00 +15°C° 0.3 mm 6 mps 756 mmHg 73%
    22:00 +15°C° 0.3 mm 6 mps 756 mmHg 74%
    23:00 +15°C° 0.3 mm 5 mps 757 mmHg 75%

    22 November, Wednesday

    Time Temperature Precipitation Wind Pressure Humidity
    00:00 +15°C° 0.2 mm 5 mps 756 mmHg 74%
    01:00 +15°C° 0.2 mm 5 mps 756 mmHg 73%
    02:00 +15°C° 0.2 mm 5 mps 756 mmHg 72%
    03:00 +15°C° 0.3 mm 5 mps 756 mmHg 73%
    04:00 +15°C° 0.3 mm 5 mps 756 mmHg 73%
    05:00 +15°C° 0.3 mm 5 mps 757 mmHg 73%
    06:00 +15°C° 0.2 mm 5 mps 757 mmHg 70%
    07:00 +16°C° 0.2 mm 5 mps 757 mmHg 67%
    08:00 +16°C° 0.2 mm 5 mps 758 mmHg 64%
    09:00 +17°C° 0.1 mm 6 mps 758 mmHg 60%
    10:00 +17°C° 0.1 mm 6 mps 758 mmHg 56%
    11:00 +19°C° 0.1 mm 6 mps 758 mmHg 53%
    12:00 +19°C° 0.1 mm 6 mps 758 mmHg 52%
    13:00 +19°C° 0.1 mm 6 mps 758 mmHg 52%
    14:00 +19°C° 0.1 mm 6 mps 758 mmHg 52%
    15:00 +17°C° 0 mm 6 mps 758 mmHg 56%
    16:00 +16°C° 0 mm 5 mps 758 mmHg 59%
    17:00 +17°C° 0 mm 4 mps 758 mmHg 62%
    18:00 +16°C° 0 mm 3 mps 759 mmHg 64%
    19:00 +16°C° 0 mm 3 mps 759 mmHg 65%
    20:00 +14°C° 0 mm 3 mps 759 mmHg 67%
    21:00 +15°C° 0 mm 2 mps 760 mmHg 67%
    22:00 +15°C° 0 mm 2 mps 760 mmHg 67%
    23:00 +14°C° 0 mm 2 mps 760 mmHg 67%

    23 November, Thursday

    Time Temperature Precipitation Wind Pressure Humidity
    00:00 +14°C° 0 mm 2 mps 760 mmHg 67%
    01:00 +14°C° 0 mm 2 mps 760 mmHg 67%
    02:00 +14°C° 0 mm 2 mps 760 mmHg 67%
    03:00 +13°C° 0 mm 2 mps 760 mmHg 68%
    04:00 +13°C° 0 mm 1 mps 760 mmHg 68%
    05:00 +13°C° 0 mm 1 mps 760 mmHg 68%
    06:00 +14°C° 0 mm 1 mps 760 mmHg 66%
    07:00 +14°C° 0 mm 1 mps 761 mmHg 63%
    08:00 +15°C° 0 mm 1 mps 761 mmHg 60%
    09:00 +16°C° 0 mm 1 mps 761 mmHg 55%
    10:00 +17°C° 0 mm 2 mps 761 mmHg 50%
    11:00 +18°C° 0 mm 2 mps 761 mmHg 45%
    12:00 +19°C° 0 mm 2 mps 761 mmHg 44%
    13:00 +19°C° 0 mm 3 mps 760 mmHg 43%
    14:00 +20°C° 0 mm 3 mps 760 mmHg 42%
    15:00 +19°C° 0 mm 3 mps 760 mmHg 45%
    16:00 +18°C° 0 mm 3 mps 760 mmHg 49%
    17:00 +17°C° 0 mm 2 mps 760 mmHg 52%
    18:00 +17°C° 0 mm 2 mps 761 mmHg 54%
    19:00 +16°C° 0 mm 2 mps 761 mmHg 56%
    20:00 +16°C° 0 mm 2 mps 761 mmHg 58%
    21:00 +15°C° 0 mm 1 mps 761 mmHg 59%
    22:00 +15°C° 0 mm 1 mps 761 mmHg 61%
    23:00 +15°C° 0 mm 1 mps 761 mmHg 62%

    24 November, Friday

    Time Temperature Precipitation Wind Pressure Humidity
    00:00 +14°C° 0 mm 1 mps 761 mmHg 62%
    01:00 +14°C° 0 mm 1 mps 761 mmHg 63%
    02:00 +14°C° 0 mm 1 mps 761 mmHg 64%
    03:00 +14°C° 0 mm 1 mps 761 mmHg 64%
    04:00 +13°C° 0 mm 1 mps 761 mmHg 65%
    05:00 +13°C° 0 mm 1 mps 761 mmHg 66%
    06:00 +14°C° 0 mm 1 mps 761 mmHg 62%
    07:00 +15°C° 0 mm 1 mps 762 mmHg 59%
    08:00 +16°C° 0 mm 1 mps 762 mmHg 55%
    09:00 +18°C° 0 mm 1 mps 762 mmHg 51%
    10:00 +19°C° 0 mm 1 mps 762 mmHg 46%
    11:00 +18°C° 0 mm 0 mps 762 mmHg 42%
    12:00 +20°C° 0 mm 1 mps 761 mmHg 41%
    13:00 +21°C° 0 mm 1 mps 761 mmHg 40%
    14:00 +20°C° 0 mm 2 mps 761 mmHg 39%
    15:00 +19°C° 0 mm 2 mps 761 mmHg 43%
    16:00 +19°C° 0 mm 2 mps 761 mmHg 46%
    17:00 +18°C° 0 mm 2 mps 762 mmHg 50%
    18:00 +18°C° 0 mm 2 mps 762 mmHg 53%
    19:00 +17°C° 0 mm 2 mps 762 mmHg 55%
    20:00 +18°C° 0 mm 1 mps 763 mmHg 58%
    21:00 +16°C° 0 mm 1 mps 763 mmHg 59%
    22:00 +16°C° 0 mm 1 mps 763 mmHg 60%
    23:00 +16°C° 0 mm 1 mps 763 mmHg 61%
    Show more